Temp
29 28 27 27 27 29 29 29 29 29 30 30 29 27 25 24 24 26 27 26 26 26 25 26 26 25 26 26 27 27 28 28 28 28 28 28 29 29 29 29 29 29 29 29 30 30 29 28 28 28 27 27 27 26 26 26 25 26 25 25 25 24 24 24 24 24 25 25 25 25 24 24 24 24 24 24 24 24 24 24 24 24 24 24 24 24
29 26 26 28 29 30 30 29 30 30 30 30 29 26 25 24 24 27 26 25 27 26 24 26 25 23 24 25 25 25 27 27 27 28 28 28 29 29 29 29 29 29 29 29 29 29 29 28 28 28 28 27 27 27 26 26 26 26 26 25 25 25 25 24 24 25 25 25 25 25 25 24 24 24 24 24 24 24 24 24 24 24 24 24 24 24
27 26 28 30 29 29 30 30 30 30 30 30 29 26 24 24 25 26 26 25 27 26 24 25 24 22 23 24 24 24 25 25 25 26 26 27 28 29 28 29 29 29 29 29 29 29 28 28 28 28 28 27 27 27 27 26 26 26 25 25 25 25 25 25 25 25 25 25 25 25 25 25 25 25 25 25 24 24 24 24 24 24 24 24 24 24
24 26 29 29 29 29 30 30 30 30 29 30 29 25 23 25 25 23 24 26 27 26 25 25 23 22 22 23 23 24 24 24 24 24 25 25 27 28 28 29 29 29 29 29 29 29 28 28 28 27 27 27 27 27 26 26 26 26 25 25 25 25 25 25 25 25 25 25 25 26 26 26 26 25 25 25 25 24 25 25 24 24 24 24 24 24
26 29 30 29 29 29 29 30 31 29 28 29 30 27 24 26 26 24 25 26 26 25 25 24 22 21 22 22 24 24 23 23 24 25 26 25 26 26 27 29 29 29 29 29 29 29 28 28 28 27 27 27 27 27 26 26 26 26 26 26 25 25 25 25 25 25 25 25 26 26 26 26 26 25 25 24 24 24 24 24 24 24 24 24 24 24
28 29 30 30 30 30 30 30 30 29 26 27 30 30 28 27 27 26 25 25 23 22 24 25 21 21 22 22 23 24 24 24 24 25 26 26 26 26 27 28 29 29 29 29 29 29 28 28 27 27 27 27 27 26 26 26 26 26 26 26 26 25 25 25 25 25 25 25 26 26 26 26 25 25 24 24 24 24 24 24 24 24 24 24 24 24
29 30 30 30 30 30 30 29 31 31 26 25 29 32 30 29 27 25 25 24 21 21 25 26 23 21 21 22 23 24 24 25 25 25 25 26 26 26 27 28 28 29 29 29 29 29 28 27 27 27 27 27 26 26 27 26 26 26 26 26 26 26 25 25 25 25 25 25 26 26 26 26 26 25 25 25 25 25 25 25 24 24 24 24 24 24
31 31 30 31 30 30 29 29 31 32 27 25 30 32 29 28 26 25 25 23 23 23 24 25 24 22 21 22 24 24 24 25 25 25 25 25 25 25 26 27 28 29 29 29 29 29 28 27 27 27 27 27 26 26 26 26 26 26 26 26 26 26 25 25 25 25 25 26 26 26 26 26 26 25 25 25 25 25 25 24 24 24 24 24 24 24
31 31 31 31 30 29 30 30 31 32 29 29 31 31 29 28 27 26 25 24 24 23 21 23 24 22 21 22 24 24 23 24 25 25 25 25 25 25 26 27 28 29 29 29 29 29 29 28 27 27 27 27 27 26 26 26 26 26 26 26 26 26 25 25 25 25 25 26 26 26 26 26 26 26 26 25 25 25 25 25 24 24 24 24 24 24
30 31 32 31 30 30 31 32 32 32 31 32 32 31 30 29 28 27 26 24 24 23 21 22 23 22 21 22 23 23 23 24 25 26 26 25 26 26 26 26 27 28 29 29 29 29 29 28 28 27 27 27 27 27 26 26 26 26 26 25 26 26 25 25 25 25 26 26 26 26 26 26 26 26 25 25 25 25 25 25 25 24 24 25 24 24
30 32 32 32 31 32 32 32 33 32 32 33 33 31 30 29 28 27 26 25 23 22 22 22 23 23 21 21 22 23 24 25 26 26 25 25 25 26 26 26 27 28 28 29 29 29 29 29 28 28 28 27 27 27 26 26 26 26 25 25 26 26 25 25 25 25 26 26 26 26 26 26 26 25 25 25 25 25 25 25 25 25 25 25 24 24
30 31 32 33 33 33 33 33 33 32 32 33 33 31 28 25 25 24 24 24 22 21 23 24 24 23 21 22 23 25 26 27 27 26 26 25 25 26 26 26 26 27 28 29 29 28 28 28 28 28 28 27 27 27 26 26 26 26 25 25 25 25 25 25 25 25 25 26 26 25 25 26 26 25 25 25 25 25 25 25 25 25 25 25 25 25
29 30 31 32 33 33 32 31 31 32 33 33 31 27 24 22 23 22 21 22 21 22 24 25 24 23 22 24 26 26 26 27 27 27 27 26 25 26 26 26 26 27 28 29 29 28 28 28 28 28 28 27 27 27 26 26 26 26 25 25 25 25 25 26 25 25 25 25 25 25 25 25 26 26 26 26 25 25 25 25 25 25 25 25 25 25
26 29 31 31 32 33 33 29 27 29 30 30 28 25 23 22 22 22 22 22 22 23 24 25 24 22 22 27 29 27 27 27 27 27 27 26 26 26 26 26 26 27 28 28 28 28 28 28 28 28 28 27 27 27 26 26 26 25 25 25 25 25 25 25 25 25 25 25 25 25 25 25 25 26 26 26 26 26 25 25 25 25 25 25 25 25
22 24 28 30 30 31 33 31 29 29 30 30 30 28 24 23 22 22 22 22 22 23 23 24 24 22 22 26 29 28 27 28 27 27 27 27 26 26 26 26 26 26 27 28 28 28 28 28 28 28 28 28 28 27 26 26 26 25 25 25 25 25 25 25 25 25 25 25 25 25 25 25 25 26 26 26 26 26 26 25 26 25 25 25 25 25
22 23 28 30 30 31 32 32 32 31 29 29 32 29 25 26 25 23 22 23 22 22 23 22 23 24 25 27 28 28 27 28 28 27 27 27 26 26 26 26 26 26 27 27 28 28 28 28 28 28 28 28 28 27 26 26 26 25 25 25 25 25 25 25 25 25 25 25 25 25 25 25 26 26 26 26 26 26 26 26 26 26 25 25 25 25
22 23 29 30 30 31 31 32 33 31 28 29 28 26 27 31 29 23 22 23 23 22 22 22 22 24 26 27 28 27 27 27 27 27 27 26 26 26 26 26 26 26 26 27 28 28 28 28 28 28 28 28 28 27 26 26 26 25 25 25 25 25 25 25 25 25 25 25 25 25 25 25 26 26 26 26 26 26 26 26 26 26 25 25 25 25
24 23 27 29 28 30 31 31 33 32 30 28 26 27 30 31 30 26 22 22 22 22 22 22 22 22 23 24 26 27 27 27 27 27 26 26 26 26 26 26 26 26 26 26 27 27 27 27 28 28 28 28 28 27 26 26 26 25 25 25 25 24 24 25 25 24 24 24 25 25 25 25 26 26 26 26 26 26 26 26 26 25 25 25 25 25
26 23 25 29 28 29 31 30 29 30 31 29 28 31 30 25 24 24 22 22 22 22 22 21 22 22 21 22 24 26 27 27 27 26 26 26 26 26 26 26 26 27 26 26 26 27 27 27 27 28 28 28 28 27 27 26 26 25 25 25 25 25 25 25 24 24 24 24 25 25 25 25 26 26 26 26 26 25 25 25 25 25 25 25 25 25
27 23 23 27 28 28 30 28 25 26 29 30 30 32 30 26 24 24 23 23 22 22 22 21 21 22 22 23 23 24 25 27 27 27 26 26 26 26 26 26 26 27 27 26 26 27 26 26 27 28 28 28 28 27 27 26 26 25 25 25 25 25 25 24 24 24 24 24 25 25 25 25 25 26 26 26 26 25 25 25 25 25 25 25 25 25
27 24 22 25 27 27 26 26 26 25 27 27 26 26 27 27 27 26 25 24 23 22 22 22 21 22 23 24 24 23 24 26 27 27 27 27 27 27 27 27 27 27 27 27 26 27 25 25 26 27 27 28 28 27 26 26 26 26 25 25 25 25 24 24 24 24 24 25 25 25 25 25 26 26 26 26 26 25 25 25 25 25 25 25 25 25
26 25 22 22 24 24 25 27 28 28 28 27 26 25 25 25 25 24 23 24 24 23 22 22 22 22 24 24 23 23 23 24 26 27 27 27 27 27 27 26 26 26 27 27 26 26 24 23 26 27 27 27 27 27 27 26 26 26 25 25 25 25 25 24 24 24 24 25 25 25 25 25 26 25 26 26 26 26 26 25 26 26 26 26 26 25
26 25 23 22 23 24 26 28 28 28 29 29 28 27 27 26 25 22 22 23 23 23 23 22 21 22 25 24 23 23 23 23 24 25 26 26 25 26 26 25 25 26 27 27 26 25 23 23 25 26 26 26 26 26 26 26 26 26 25 25 25 25 25 25 25 24 25 25 25 25 25 25 25 25 25 26 26 26 26 26 26 26 26 26 26 26
27 25 23 22 23 25 26 27 27 28 28 27 27 28 28 27 27 25 25 25 23 22 23 22 21 23 25 24 23 23 23 23 23 23 24 24 24 24 24 24 24 25 26 26 25 24 23 23 24 25 25 25 25 26 26 26 26 26 25 25 25 25 25 25 25 25 25 25 25 25 25 25 25 25 25 26 26 26 26 26 26 26 26 26 26 26
25 24 23 21 21 22 23 24 25 26 26 26 26 28 28 28 28 28 26 25 23 22 22 22 21 22 24 24 22 22 22 22 22 22 22 22 22 22 22 22 23 24 24 24 24 24 23 23 23 23 24 25 25 25 25 25 26 26 25 25 25 25 25 25 25 25 25 25 25 25 25 25 25 25 25 25 25 26 26 26 26 26 26 26 26 26
26 25 24 21 20 21 21 21 22 23 24 25 26 28 27 27 27 26 24 23 22 21 21 21 21 22 24 23 21 21 21 22 22 22 21 21 21 21 21 21 21 22 22 22 22 23 23 23 22 22 23 24 24 25 25 25 25 26 25 25 25 25 25 25 25 25 25 25 25 25 25 25 25 25 25 25 25 26 26 26 26 26 26 26 26 26
27 25 25 23 21 22 21 22 23 24 23 24 25 26 26 26 26 25 23 22 22 21 21 20 21 22 22 22 21 21 21 21 21 21 21 21 20 20 20 20 21 21 20 20 21 21 22 22 22 22 22 23 23 23 23 24 24 25 25 25 25 25 25 25 25 25 25 25 25 25 25 25 25 25 25 26 26 26 26 26 26 27 26 26 26 26
26 24 25 25 23 24 24 24 25 25 24 24 24 24 25 25 25 24 22 22 23 22 21 20 21 21 21 21 21 20 21 21 21 21 21 21 20 20 20 20 20 21 21 21 20 20 20 20 21 21 21 22 22 22 21 21 22 22 22 23 23 23 24 25 25 25 25 25 25 25 25 25 25 25 26 26 26 26 26 26 27 27 27 27 26 26
25 23 25 25 24 25 27 26 26 25 25 25 25 25 24 24 24 23 22 22 23 22 20 20 21 20 20 20 20 20 20 20 20 20 21 21 20 20 20 20 20 20 20 20 20 20 19 19 19 20 20 21 21 21 21 21 21 21 21 21 21 21 22 23 24 24 24 25 25 25 25 25 25 25 25 26 26 26 26 27 27 27 27 27 27 27
25 24 25 26 24 25 26 27 27 26 25 25 25 25 24 24 24 23 23 23 22 21 21 21 20 20 20 20 20 20 20 19 20 20 20 20 20 20 20 20 20 19 19 19 19 20 19 19 19 19 20 20 20 21 21 22 22 22 22 22 22 22 21 22 23 22 22 23 24 25 25 25 25 25 25 26 26 26 26 26 27 27 27 27 27 27
25 24 26 26 23 23 26 26 26 26 24 23 24 25 24 23 23 23 23 23 22 21 21 21 20 21 21 20 20 19 19 19 19 20 20 20 20 20 20 19 19 19 19 19 19 19 19 19 19 19 19 19 19 20 20 20 21 22 22 22 22 22 22 21 21 22 21 22 23 24 25 25 25 25 25 25 26 26 26 26 27 27 27 27 27 27
25 24 25 25 22 22 24 25 25 25 24 22 22 23 23 23 22 22 22 23 22 21 21 21 20 20 20 20 19 19 18 18 19 19 20 20 20 20 20 19 19 19 19 19 19 19 19 19 19 19 19 19 19 20 20 20 20 20 21 21 21 21 21 21 21 21 21 21 22 24 25 25 25 25 25 25 25 25 26 26 26 27 27 27 26 26
26 25 24 23 21 21 23 24 24 24 22 21 21 22 23 23 22 22 22 22 23 22 21 21 20 20 20 20 19 18 18 18 18 19 19 19 19 19 19 19 19 19 19 19 19 19 19 18 18 18 18 18 19 19 20 20 20 20 20 20 21 21 21 22 21 21 21 21 21 23 25 25 25 25 24 24 24 24 24 24 25 26 26 26 26 26
26 25 24 23 21 21 23 24 24 22 20 20 21 21 22 23 22 21 21 21 22 22 21 20 20 20 20 19 19 18 18 18 18 18 18 18 19 19 19 19 19 19 19 18 18 18 18 18 18 18 18 18 18 19 19 19 19 19 20 20 20 21 21 21 21 21 21 21 21 22 24 25 25 25 24 23 23 23 23 23 23 24 24 25 25 25
26 25 24 23 22 21 22 23 21 20 20 21 22 21 22 22 22 21 21 21 21 21 20 20 20 20 20 19 18 18 18 17 17 17 17 17 18 18 18 18 18 18 18 18 18 18 18 18 18 18 18 18 18 18 18 19 19 19 19 19 20 20 21 21 21 21 21 21 20 21 22 23 23 23 23 23 22 23 23 23 22 23 23 23 23 23
26 25 24 23 22 22 21 21 20 20 21 22 22 22 21 22 23 22 20 20 20 20 20 20 19 19 19 19 18 18 18 18 18 17 17 17 17 17 18 18 18 17 17 17 17 17 17 18 18 18 18 18 18 18 18 18 18 18 18 19 19 19 20 20 20 20 21 20 20 20 21 21 21 22 22 22 22 22 22 22 22 22 22 22 22 22
26 25 24 23 22 22 20 20 20 20 20 21 21 21 20 21 23 22 20 19 20 20 20 20 19 19 19 18 18 18 19 19 18 18 17 17 17 17 18 18 18 18 17 17 17 17 17 17 18 18 18 18 18 18 18 18 18 18 18 18 18 18 19 19 19 19 20 20 20 20 20 20 20 20 21 21 22 22 22 22 22 21 20 21 21 21
26 26 24 22 22 22 21 20 20 20 20 20 21 22 21 21 22 23 20 19 20 20 20 20 20 19 19 19 19 19 19 20 19 18 17 17 18 18 18 18 19 18 18 18 17 17 17 17 17 18 18 18 18 18 18 18 18 18 18 18 18 18 18 18 18 19 19 19 19 19 20 20 20 20 20 20 21 21 21 21 21 20 20 20 20 20
26 25 24 23 22 22 21 20 20 20 20 21 21 22 22 22 23 23 21 19 20 20 20 20 20 19 19 19 19 18 19 20 19 17 17 17 17 17 18 18 18 18 18 18 18 17 17 17 17 18 18 18 18 18 18 18 18 18 17 17 17 18 18 18 18 18 18 18 19 19 19 20 20 20 20 20 20 20 20 20 20 20 20 20 20 20
25 24 24 22 21 21 21 20 20 20 20 21 22 22 22 22 23 23 21 19 20 21 20 20 20 19 19 19 19 18 19 20 18 17 17 17 17 17 18 18 18 18 18 18 18 18 18 18 18 18 17 17 17 18 18 18 18 17 17 17 18 18 18 18 18 18 18 18 19 19 19 19 19 19 19 19 19 20 20 20 20 20 20 20 20 20
23 23 22 21 21 20 20 20 19 20 21 22 22 22 22 22 23 21 20 20 21 20 20 20 19 19 18 18 18 18 18 18 18 17 17 17 17 17 17 18 18 18 18 18 18 17 18 18 18 18 17 17 18 18 18 18 18 17 17 17 18 18 18 18 18 19 19 19 19 19 19 19 19 19 19 19 19 19 19 19 19 19 19 20 20 20
22 22 21 21 21 20 20 20 19 20 21 22 22 22 22 22 21 20 20 21 21 20 20 20 19 19 18 17 16 16 16 16 17 17 17 17 17 16 16 17 18 17 17 18 17 17 17 17 17 17 17 18 18 18 18 18 18 17 18 18 17 18 18 18 19 19 19 19 19 19 19 19 19 19 19 18 18 18 18 19 19 19 19 19 19 19
22 21 21 21 21 20 20 19 19 20 21 22 22 22 22 22 21 21 21 21 21 20 20 19 19 18 17 16 16 16 16 16 16 16 16 16 16 16 16 16 16 16 17 17 17 17 17 17 17 17 17 17 17 18 18 18 18 18 18 18 18 18 19 19 19 19 19 19 19 19 19 19 19 19 19 19 18 18 18 18 18 18 19 19 18 18
22 21 21 21 21 21 20 19 20 21 21 21 21 21 21 21 21 21 21 20 20 20 19 19 19 18 17 16 16 16 16 16 16 16 16 16 16 15 15 16 16 16 16 16 16 17 17 16 16 16 16 17 17 17 17 18 18 18 18 18 18 19 19 19 19 19 19 19 19 19 19 19 19 19 19 19 19 18 18 18 18 18 18 18 18 18
22 23 22 22 21 21 21 21 21 21 21 21 21 21 20 21 21 21 21 21 20 20 19 19 19 18 17 17 17 17 16 16 16 16 16 16 16 16 15 16 16 16 16 16 16 16 16 16 16 16 16 16 16 17 17 17 17 17 17 17 18 18 19 19 19 19 19 19 19 19 19 19 19 18 18 18 18 18 18 18 18 18 18 18 18 18
23 23 23 22 21 21 21 21 21 21 21 21 21 20 21 21 21 21 21 21 20 20 20 19 19 18 18 17 17 17 17 17 17 16 16 16 16 15 16 16 16 16 16 16 16 16 16 16 16 15 15 15 15 16 16 16 16 16 16 17 17 18 18 19 19 19 19 19 19 19 19 19 19 18 18 18 18 18 18 18 18 18 17 17 17 17
23 23 23 22 21 21 21 20 21 21 21 21 21 21 21 21 21 21 21 20 20 20 20 19 19 19 18 18 18 17 17 17 17 16 17 17 16 15 16 16 16 17 17 16 16 16 16 15 15 15 15 15 15 15 16 16 16 15 15 16 17 17 17 18 18 18 18 18 19 18 18 18 18 18 18 18 18 18 18 17 17 17 17 17 17 17
23 23 23 22 21 21 20 20 20 20 20 21 21 21 21 21 21 21 21 20 20 20 19 18 19 19 19 18 18 18 17 17 17 17 17 17 16 15 16 16 16 17 17 16 16 16 16 15 15 15 15 15 15 15 16 16 16 16 16 16 16 16 17 17 17 18 18 18 18 18 18 18 18 18 18 18 18 18 17 17 17 17 17 17 17 16
23 23 22 21 20 20 19 19 20 20 20 20 20 21 21 21 21 20 20 20 20 20 19 18 18 18 18 18 17 17 18 17 17 17 17 16 15 15 17 17 17 17 17 16 16 16 16 15 15 15 15 14 15 15 15 16 16 16 16 16 16 16 16 16 17 17 17 17 17 18 18 18 18 18 18 18 18 17 17 16 16 17 17 17 17 17
23 22 21 20 19 19 19 20 20 21 20 20 20 21 21 21 21 20 20 20 20 20 20 19 18 18 18 17 17 17 18 18 16 16 16 16 15 16 17 18 17 17 17 17 16 16 16 16 15 15 15 15 15 15 15 15 15 15 15 15 16 16 16 16 16 17 16 16 16 17 17 17 17 17 17 17 17 17 16 16 16 16 16 17 17 17
23 22 22 21 21 21 21 21 21 21 20 20 20 21 21 21 21 20 20 20 20 19 19 19 19 19 18 18 18 18 18 17 17 16 16 16 16 17 18 18 18 17 17 17 17 16 16 16 15 15 15 15 15 15 15 15 14 14 14 15 15 15 16 16 16 16 16 16 16 16 16 17 17 17 17 17 17 17 17 16 16 15 16 16 16 16
Height
776 789 795 794 792 787 782 783 786 786 785 789 794 798 802 808 809 802 800 798 795 806 814 810 811 814 812 809 806 803 801 802 805 805 806 806 805 807 808 809 809 809 807 806 806 808 810 812 814 816 819 821 823 825 826 829 830 832 834 836 838 840 841 842 843 844 845 846 847 848 850 851 852 853 854 855 856 856 857 858 859 859 860 860 861 861
780 796 796 786 784 779 777 778 780 782 783 786 792 797 802 806 807 800 800 800 795 806 817 810 815 825 819 812 809 806 805 806 806 806 806 805 804 804 806 807 808 807 806 806 806 807 809 812 813 815 818 820 822 824 826 828 829 832 833 835 837 839 841 842 843 843 844 845 846 847 849 850 851 852 853 854 855 856 857 858 858 859 860 861 861 862
793 796 787 777 776 776 776 776 778 781 783 786 789 798 807 806 805 804 801 800 796 806 817 813 822 832 820 812 811 809 809 809 806 804 805 805 804 804 804 805 806 806 806 806 806 807 809 811 813 815 817 819 821 822 825 827 828 831 832 834 836 838 840 841 842 843 843 845 845 847 848 849 850 851 852 853 854 856 856 857 859 859 860 861 861 862
800 790 776 771 773 776 779 778 779 784 785 786 789 799 807 802 803 812 809 803 799 804 814 815 824 832 824 816 813 810 809 809 807 804 805 805 804 804 802 801 803 805 807 807 806 806 808 811 812 814 816 818 820 822 824 825 827 829 831 833 834 836 839 840 841 842 843 844 845 847 848 848 850 851 852 853 854 856 856 857 858 859 860 861 861 862
791 776 766 770 773 776 781 780 779 787 790 785 783 792 800 796 796 804 806 804 805 808 809 815 831 837 830 825 818 809 809 808 806 805 804 803 802 803 801 799 799 801 803 805 805 805 807 809 811 813 815 817 819 821 822 824 825 827 829 831 833 835 837 839 840 842 843 844 845 846 847 848 849 851 852 853 854 855 856 857 858 859 860 861 861 862
783 768 765 772 774 775 780 781 778 784 791 787 779 778 783 787 791 797 802 807 820 826 812 812 837 842 829 827 821 812 811 808 806 806 804 803 802 803 802 799 798 798 798 800 802 803 806 808 809 812 814 815 818 819 821 823 824 826 828 830 832 834 836 838 839 841 842 843 844 845 846 847 848 849 850 851 852 854 855 856 857 858 859 860 861 862
773 763 764 771 773 775 779 780 773 775 788 790 774 765 771 781 791 799 801 809 826 828 809 803 825 838 832 827 819 813 814 809 806 807 804 802 802 802 801 799 798 797 796 797 799 800 803 806 808 811 812 814 816 818 820 822 824 825 827 829 832 833 835 837 839 840 842 842 844 845 845 846 847 848 849 850 851 853 854 855 856 858 859 860 861 861
766 763 767 769 771 776 780 780 770 767 783 787 767 762 774 782 791 797 797 806 813 813 810 804 809 828 834 824 813 812 815 811 807 807 804 801 801 800 799 796 796 796 795 795 798 799 801 804 806 808 810 812 815 817 819 822 824 825 827 829 831 833 835 836 838 839 841 842 843 844 845 846 847 847 849 850 851 852 853 854 856 857 858 859 860 861
764 766 768 767 772 777 775 771 763 762 777 776 761 763 772 777 786 791 795 803 802 810 827 819 808 825 833 818 810 814 817 815 808 803 801 799 798 797 797 795 794 794 792 792 795 796 798 801 804 806 809 811 814 816 818 820 822 824 826 828 830 832 834 836 837 838 840 841 842 843 845 845 847 848 849 850 851 852 853 854 855 856 857 859 859 860
765 761 758 762 771 772 766 761 756 760 769 762 756 763 769 776 783 788 796 800 801 813 828 821 811 824 831 819 815 819 819 813 803 798 796 795 794 794 794 793 792 792 791 791 792 793 795 798 802 805 807 810 812 815 817 819 821 824 826 828 830 831 833 835 836 838 839 840 841 842 843 845 846 847 848 849 850 851 852 853 854 855 856 858 859 859
761 751 749 755 760 758 755 754 750 754 757 752 757 765 772 782 786 791 793 794 811 823 814 807 806 813 825 822 814 810 801 792 792 794 794 792 791 790 790 790 790 790 790 790 790 791 794 797 800 803 806 808 811 814 816 818 820 823 825 827 829 831 832 834 835 837 838 839 841 841 842 844 845 846 847 848 849 850 852 853 854 855 856 857 858 859
761 757 754 749 746 747 750 752 748 748 749 751 761 768 779 790 795 804 804 803 826 827 799 791 797 807 820 814 801 792 779 774 781 785 787 788 788 787 787 788 787 788 788 788 790 791 793 796 799 801 804 806 810 812 815 817 819 821 824 826 828 830 831 833 834 836 837 838 840 841 841 843 844 845 846 847 848 849 850 852 853 854 855 856 857 858
768 764 758 749 742 742 752 760 757 752 751 756 764 773 790 804 810 820 823 820 826 811 785 782 794 809 810 791 781 780 773 771 772 771 774 779 782 784 784 786 786 786 786 787 788 789 791 794 796 799 802 804 807 810 812 815 817 819 822 824 827 828 830 832 833 835 836 838 839 840 841 842 843 844 845 846 848 849 849 851 852 853 854 855 856 857
782 770 759 757 752 742 750 766 770 766 763 766 773 781 796 809 819 827 821 817 814 795 780 782 793 808 800 775 767 769 765 765 765 766 769 771 776 780 781 783 785 785 785 786 786 787 789 791 793 796 799 802 804 807 810 812 815 818 820 823 825 827 829 831 832 834 835 837 838 839 840 841 842 843 844 846 847 848 849 850 851 852 853 854 855 855
801 793 772 767 765 752 750 758 764 765 767 769 768 775 787 793 807 818 812 811 809 794 787 792 798 803 794 774 762 758 757 760 763 765 767 770 774 776 780 783 784 785 785 784 785 786 786 788 791 794 796 799 802 805 808 810 813 815 818 821 823 825 827 829 831 833 834 836 837 838 839 840 841 842 843 845 846 847 848 849 850 851 852 853 854 855
800 797 773 763 761 755 754 751 749 760 772 769 762 772 782 775 780 794 797 796 797 796 797 799 797 789 778 769 759 756 759 760 763 766 768 772 774 776 781 783 784 785 785 784 784 784 784 785 788 791 794 797 800 802 805 807 810 813 815 818 821 823 825 827 830 831 833 834 836 837 838 839 840 842 843 843 845 846 847 848 849 850 851 852 853 854
801 794 772 765 761 754 755 751 746 759 772 770 769 776 773 760 764 784 793 786 789 804 804 798 800 790 778 775 767 764 768 767 767 769 770 773 774 777 780 780 782 784 783 783 783 783 783 783 786 789 791 794 797 799 802 805 807 810 813 816 819 821 823 825 828 830 831 833 835 836 837 838 839 840 841 842 843 845 846 847 848 849 850 851 852 853
796 796 777 770 771 759 750 750 748 751 760 771 777 770 760 760 762 775 795 798 802 814 809 802 809 806 797 793 780 773 775 775 773 772 772 774 774 777 778 777 779 781 781 782 781 782 782 782 784 786 789 791 794 796 799 802 805 808 811 813 816 819 821 823 825 827 830 831 833 835 836 837 838 839 840 841 843 844 845 846 847 848 849 849 851 852
786 798 785 771 777 768 750 757 766 759 754 764 767 756 761 781 783 780 794 805 812 820 815 811 811 805 803 802 791 785 782 777 775 774 775 776 776 776 776 777 778 778 780 781 780 781 781 781 783 784 787 789 791 794 797 800 804 806 809 811 813 816 818 821 823 825 827 829 831 833 834 835 837 838 839 840 842 843 844 845 845 846 848 848 849 850
783 800 799 777 773 772 763 771 785 780 763 758 760 758 763 777 781 781 784 789 803 815 817 818 813 803 800 798 794 792 784 776 775 775 775 775 775 776 776 776 778 778 780 780 780 781 780 781 782 782 784 786 789 792 795 798 802 804 807 810 812 815 817 819 821 823 825 827 829 831 832 834 835 836 838 839 841 842 842 843 844 845 846 847 848 849
784 797 805 789 776 779 782 782 786 787 779 774 775 777 777 773 770 775 776 775 786 800 811 820 817 804 794 789 789 790 783 775 772 771 772 772 771 773 774 775 777 777 778 779 780 780 780 780 781 782 784 785 787 790 793 796 799 802 805 808 810 813 815 817 819 821 823 825 827 829 830 832 834 835 837 838 839 840 841 842 843 844 845 846 847 848
791 795 803 800 792 792 790 780 775 777 777 779 781 782 786 782 777 786 790 777 771 782 798 808 810 802 791 785 785 786 782 777 771 769 770 770 770 772 773 775 778 779 778 778 778 779 780 779 779 781 784 786 788 789 790 793 796 799 802 805 807 810 812 814 816 818 821 823 825 827 828 830 832 833 835 836 838 839 839 841 841 842 843 844 845 846
787 793 801 803 797 793 787 775 773 773 769 772 776 777 780 777 778 792 798 783 772 778 786 794 803 800 787 783 785 785 783 778 774 773 772 773 773 772 773 775 776 777 774 773 774 775 777 778 779 780 782 785 788 790 790 791 793 796 799 801 804 806 809 811 813 816 818 821 823 825 827 829 830 832 833 834 836 837 837 839 839 841 842 842 843 844
785 795 804 804 796 789 781 772 770 772 772 777 779 776 776 775 774 778 779 773 777 787 787 794 811 805 786 783 787 786 784 781 779 779 776 776 776 774 774 773 772 771 769 770 773 774 775 777 777 779 781 783 786 788 789 790 791 793 796 798 801 803 805 809 811 814 817 819 821 823 825 827 829 830 832 833 834 835 836 837 837 839 840 841 842 842
792 800 806 812 814 811 804 795 787 784 783 787 787 779 776 774 769 767 768 770 781 793 788 792 810 806 788 788 794 792 789 787 787 786 782 780 781 782 781 778 775 774 772 772 774 775 776 777 777 777 778 780 782 783 786 789 790 791 793 795 797 800 803 806 809 812 814 817 820 822 823 825 827 829 830 831 832 833 834 835 836 837 838 839 840 841
793 799 803 815 829 833 833 826 813 803 796 790 788 783 779 777 773 773 777 782 792 800 801 805 813 806 794 795 801 800 798 795 794 791 786 783 783 785 786 784 781 780 780 780 779 778 778 777 778 778 778 780 781 782 785 789 790 789 790 793 795 798 801 804 807 810 812 815 818 820 822 823 825 827 828 829 830 831 832 833 834 835 836 837 838 839
793 797 798 807 816 818 820 817 807 803 803 798 793 789 787 785 781 781 787 795 799 803 814 822 817 809 806 805 806 807 805 802 799 793 789 788 786 786 786 786 784 783 784 785 785 786 784 782 781 780 781 782 784 785 788 791 792 790 790 792 794 797 799 802 806 808 811 814 816 818 820 822 823 825 826 828 828 830 831 832 833 833 834 835 835 836
796 802 798 799 802 800 800 800 798 799 803 802 799 796 795 790 787 791 798 801 795 797 815 823 814 812 816 810 809 810 806 804 802 796 793 792 791 789 787 785 785 785 785 785 786 788 789 790 789 786 785 786 786 787 789 793 796 795 795 795 796 799 801 802 804 807 810 812 814 816 817 820 822 823 824 826 827 828 829 830 831 831 832 833 833 834
797 804 798 795 798 795 791 792 794 798 800 799 797 799 799 797 795 800 805 802 796 803 819 821 815 817 817 811 810 809 805 804 803 799 795 794 793 793 791 788 788 788 788 789 789 788 789 792 794 793 791 790 789 788 788 791 795 797 799 800 801 803 805 804 804 807 810 811 811 814 816 818 820 821 822 824 825 826 827 828 828 829 830 830 831 832
796 802 796 795 799 795 791 790 789 794 801 800 798 799 801 802 801 803 806 804 805 814 819 817 818 819 815 812 811 808 806 805 803 799 797 796 795 794 793 793 793 794 795 794 793 791 790 792 795 796 795 794 793 791 789 788 790 793 797 800 802 805 808 807 807 809 812 813 811 812 815 817 819 820 821 822 823 824 825 826 826 827 827 828 829 830
795 803 796 795 803 800 792 790 788 792 802 805 803 802 803 806 808 807 808 807 811 819 818 815 820 820 812 810 811 809 807 805 804 803 801 798 797 796 796 798 798 799 799 797 795 794 792 792 794 796 796 794 794 793 792 791 790 791 794 798 801 803 805 808 811 812 813 815 814 812 814 816 818 819 821 821 822 822 823 824 825 825 825 826 827 828
794 801 796 798 811 808 795 795 795 793 801 811 813 811 809 811 814 814 812 810 813 820 821 819 823 822 813 809 811 811 809 807 807 806 803 800 799 798 799 800 801 801 800 798 797 796 794 794 793 794 795 794 792 792 793 795 795 794 795 797 800 801 802 806 811 814 815 816 816 813 813 815 816 817 819 820 821 821 822 823 823 823 824 824 825 826
793 799 800 804 815 812 799 797 795 796 812 826 825 819 815 813 816 817 816 814 811 814 821 824 824 819 813 811 813 814 812 811 810 808 805 804 801 800 801 801 801 801 801 800 800 798 797 796 794 794 795 794 794 793 793 795 797 797 797 799 800 800 801 803 808 812 815 817 818 813 811 813 814 815 818 819 820 821 821 822 822 822 822 823 824 826
794 797 801 807 814 814 804 795 797 814 835 836 822 815 813 812 815 822 824 820 813 813 818 822 820 816 814 815 816 816 815 813 811 808 806 805 802 801 801 801 802 803 802 802 801 799 799 798 796 796 795 795 796 795 794 796 797 798 798 800 801 801 801 803 806 809 812 815 817 813 810 811 812 814 816 818 819 820 820 821 821 821 822 823 824 825
795 797 801 805 810 812 805 801 818 839 840 824 813 813 814 810 810 817 823 821 817 817 819 821 821 818 816 816 816 815 815 813 811 809 807 806 805 803 802 803 805 805 805 805 803 801 800 799 798 797 796 796 796 796 796 797 798 799 800 801 802 803 802 803 806 807 808 812 816 814 811 811 812 813 815 817 818 819 819 819 820 821 821 822 822 824
794 799 802 804 808 813 812 817 833 839 827 815 812 815 818 814 808 813 826 827 821 819 820 821 822 819 816 816 815 813 812 810 810 810 809 808 807 805 805 805 805 806 807 807 806 804 802 801 800 798 797 797 796 796 798 798 799 799 800 800 801 802 803 804 805 806 807 810 813 813 811 811 812 813 814 815 816 817 817 818 819 820 821 821 821 822
789 797 803 806 809 815 823 829 832 832 832 828 821 817 822 821 811 811 828 833 823 817 818 819 821 820 817 817 815 812 810 810 812 814 812 810 809 808 807 805 804 806 808 808 808 807 805 803 802 800 800 799 798 798 799 800 800 799 799 801 802 803 804 805 806 807 808 809 811 811 811 812 812 813 813 813 813 814 814 815 816 818 820 822 821 821
786 793 800 808 810 811 821 832 835 838 842 835 824 815 815 816 809 806 822 834 825 817 817 817 818 820 819 817 816 813 811 813 818 819 815 813 812 810 808 807 805 806 807 808 809 808 806 806 804 803 802 801 801 802 802 802 802 802 802 803 804 806 807 807 808 809 809 810 811 812 812 813 813 812 812 812 812 813 813 813 815 817 820 822 822 820
789 793 797 806 812 812 818 830 837 840 837 827 819 812 808 811 807 804 823 838 827 816 816 816 816 818 818 817 817 816 817 820 824 822 816 815 815 812 811 810 808 808 809 809 810 810 809 808 807 806 805 804 804 806 806 805 805 805 805 806 807 809 810 810 811 811 810 811 811 811 812 812 812 812 812 812 813 814 814 814 814 815 817 818 818 817
795 798 801 809 817 817 821 831 837 836 828 818 813 810 806 804 801 811 834 841 824 814 816 816 816 818 818 818 818 819 820 821 821 819 816 815 816 814 813 813 811 811 811 811 811 811 811 809 808 808 808 808 808 809 808 807 806 807 808 808 809 811 813 814 814 813 812 813 812 812 812 812 812 812 812 813 813 814 814 815 815 815 814 814 814 814
803 804 808 814 819 821 827 835 839 832 821 812 809 806 802 800 807 824 837 829 816 815 816 814 816 817 817 819 820 821 820 817 815 816 816 815 815 815 815 815 814 813 813 814 814 813 812 812 811 810 810 810 810 810 809 809 809 811 812 811 812 813 815 816 816 815 815 814 813 812 812 812 813 814 814 814 814 814 815 815 815 815 813 812 812 813
811 812 814 816 820 823 826 834 840 834 817 807 805 802 799 807 820 827 822 813 812 815 814 813 815 815 816 820 821 820 819 817 815 817 817 816 816 815 816 816 816 816 816 816 816 816 815 815 815 814 814 813 812 812 812 811 812 814 815 814 814 816 817 818 818 817 817 816 815 814 813 812 813 814 815 816 815 814 814 814 814 813 812 812 812 813
810 816 821 819 818 823 829 836 843 837 817 804 805 805 804 811 818 815 811 811 813 813 813 814 814 813 817 820 820 819 819 818 818 819 818 818 818 817 817 818 818 819 818 818 818 818 818 818 818 818 818 817 816 816 815 814 815 815 816 816 817 818 819 820 820 819 818 818 817 817 816 815 815 815 816 817 816 815 815 814 813 813 813 813 813 814
808 813 820 818 815 822 832 836 832 824 811 803 806 810 809 809 808 807 810 813 813 812 814 814 813 814 816 818 819 820 820 820 821 820 820 820 820 819 819 820 820 821 821 821 821 821 820 820 820 821 821 821 820 820 820 819 818 818 818 819 820 820 821 820 820 820 819 819 819 819 818 818 817 817 818 818 818 817 816 816 814 813 813 813 814 814
805 802 807 811 810 813 819 820 815 811 808 805 806 808 808 807 806 807 809 812 812 812 812 813 814 815 815 816 818 820 820 821 821 821 821 822 822 821 821 821 822 823 823 823 824 823 823 823 822 823 824 824 824 824 823 823 822 822 822 822 822 822 822 822 821 820 820 820 820 820 820 819 819 819 819 819 819 818 818 817 816 814 814 814 813 814
797 794 798 805 808 808 810 811 809 809 810 808 807 807 807 807 807 807 808 810 811 811 811 812 814 814 814 816 818 819 820 821 821 822 823 823 824 824 823 823 823 824 825 826 826 826 826 825 825 825 826 826 827 827 826 826 825 825 825 825 824 824 824 823 822 821 821 820 820 820 820 819 819 820 820 820 820 819 819 818 817 816 816 815 814 814
796 795 799 804 810 814 818 815 811 810 811 809 808 809 807 807 808 808 809 811 811 810 811 812 812 814 815 816 817 818 820 820 821 823 823 824 825 826 825 825 825 825 826 827 828 828 829 828 828 828 827 828 828 828 829 828 828 827 827 826 826 826 825 825 824 823 822 821 821 821 821 820 820 821 821 821 821 820 820 819 819 819 818 817 816 815
797 795 801 807 810 815 818 815 810 810 810 808 808 809 809 809 809 808 809 810 810 811 812 812 812 814 814 815 816 817 818 819 821 822 823 824 826 826 827 828 828 827 828 828 829 830 830 830 830 830 830 829 829 829 830 830 829 829 829 828 828 827 827 826 826 825 825 824 823 822 822 822 822 822 822 822 821 821 820 820 820 820 819 818 818 817
794 796 803 809 814 817 818 815 813 814 814 811 809 809 808 809 809 810 810 811 811 812 812 812 813 813 813 814 816 816 818 820 820 820 822 824 825 826 828 828 829 829 830 830 830 830 830 831 831 831 831 831 830 830 830 830 830 830 829 829 829 828 828 828 827 827 827 826 825 824 823 823 823 822 822 822 821 822 821 821 821 821 820 819 820 820
795 800 805 811 819 821 818 812 810 813 816 815 810 808 808 808 809 811 812 812 812 813 813 813 814 813 813 814 815 816 818 819 819 820 822 822 823 825 826 827 829 830 830 831 831 831 830 831 831 831 831 831 831 831 830 830 830 830 829 829 829 828 828 828 828 829 829 829 828 827 826 824 824 824 823 823 822 822 822 822 822 822 821 821 822 822
794 798 800 805 812 811 806 804 804 806 811 811 808 807 808 808 808 811 812 812 813 813 813 814 814 814 815 815 815 816 817 818 819 820 821 821 823 823 824 826 827 828 830 831 831 831 831 831 831 830 830 830 830 830 830 830 830 829 829 829 829 829 828 828 828 829 830 830 830 829 828 826 826 825 824 824 823 823 822 823 824 824 824 823 823 824
Wind_Speed
2 1 1 4 6 7 9 7 6 7 8 6 5 5 8 7 5 5 3 4 8 5 4 6 5 5 4 3 1 2 2 5 3 3 6 10 12 9 9 10 9 9 8 15 22 19 23 30 29 27 28 29 29 29 31 30 27 26 24 24 24 24 25 24 22 22 22 22 21 21 23 24 23 21 20 18 17 16 16 18 20 20 18 14 12 10
3 3 6 9 10 10 10 7 5 8 9 7 4 5 5 3 2 3 4 6 7 3 2 4 5 5 1 2 4 4 1 2 2 3 5 10 13 10 10 12 10 8 8 13 16 16 24 28 27 27 27 28 28 29 32 31 29 28 26 25 25 23 23 22 22 24 24 23 21 22 23 24 23 22 22 20 18 15 14 17 21 21 18 15 13 11
1 4 10 12 10 9 9 8 6 7 8 7 3 5 4 3 4 3 3 8 7 2 2 4 6 4 5 5 5 4 1 1 1 3 3 5 9 9 11 12 11 9 9 11 11 14 23 27 27 27 27 28 29 29 31 30 30 29 27 27 26 24 23 22 22 24 24 21 19 20 21 23 24 23 22 20 18 16 14 17 20 20 19 16 14 12
3 8 12 12 9 8 8 9 7 6 7 6 3 5 4 7 6 1 3 8 5 1 4 6 6 3 5 5 6 5 1 2 3 2 1 3 4 5 8 12 12 11 11 11 10 12 20 26 26 26 26 27 28 28 29 30 30 29 29 29 27 26 24 23 22 23 22 18 18 17 16 21 25 24 24 21 19 18 15 17 19 19 19 18 15 14
7 10 9 8 7 7 7 8 7 5 5 6 5 5 6 11 8 3 6 8 4 2 5 8 5 1 4 6 7 4 2 3 2 2 2 4 4 3 5 10 13 12 12 13 11 11 18 24 25 26 27 28 28 28 28 30 30 29 30 29 26 25 25 24 22 23 21 17 18 16 15 21 23 23 24 24 22 20 17 18 19 18 19 19 17 15
10 12 6 5 8 7 7 7 6 5 5 6 5 10 14 15 9 8 12 9 4 1 4 8 4 2 6 8 8 4 2 5 3 3 5 5 4 3 4 8 11 11 13 13 12 14 17 22 25 27 28 28 28 29 30 30 30 30 31 29 26 25 25 25 23 23 20 18 19 19 18 20 20 22 25 26 24 22 20 19 18 16 16 17 18 16
7 10 7 8 11 8 6 7 6 6 5 5 5 11 14 13 11 15 16 9 4 3 6 9 4 1 5 7 9 6 4 8 5 4 7 6 4 5 4 6 8 9 13 13 12 15 18 21 24 26 28 29 28 30 31 30 29 30 31 29 27 25 25 26 25 23 21 20 21 21 21 20 19 21 24 26 24 21 19 19 18 16 14 15 17 17
6 8 6 8 8 6 5 6 7 7 5 5 5 10 12 14 14 18 16 7 3 2 3 8 3 2 3 6 8 8 6 10 10 8 8 7 6 6 6 6 6 8 12 13 12 15 17 21 25 26 28 29 29 30 31 29 29 30 31 30 27 25 26 28 27 24 22 22 23 23 23 21 19 20 22 25 23 19 18 19 18 16 14 14 15 16
6 6 5 6 4 4 5 7 8 7 4 5 9 13 13 15 16 15 11 5 3 4 2 7 5 1 2 2 6 8 8 11 14 14 12 11 10 8 7 7 5 7 11 12 13 15 18 22 26 29 29 30 30 31 31 30 30 31 31 31 28 26 28 29 26 25 24 24 23 24 25 22 20 19 20 22 22 19 17 18 19 16 15 15 15 15
6 6 6 5 4 4 7 8 9 6 5 5 10 12 9 8 10 10 8 4 4 3 3 9 9 3 1 3 7 8 9 12 15 15 14 12 12 10 8 8 6 6 9 12 12 16 21 25 28 31 30 30 31 31 32 31 30 31 31 31 29 27 29 28 26 26 26 24 23 24 25 24 21 21 21 21 21 20 18 18 18 16 16 17 16 16
7 6 4 3 4 6 6 6 5 4 6 5 7 8 6 4 5 6 4 3 4 1 5 11 13 6 1 4 7 9 12 17 16 13 13 12 12 12 9 8 7 6 8 10 11 15 23 27 29 31 30 30 31 31 31 30 31 31 31 31 30 29 30 28 26 26 26 24 23 24 25 24 22 22 22 21 20 21 21 20 19 17 18 19 17 17
7 5 4 4 4 4 1 2 2 2 2 3 4 4 3 2 2 2 2 3 2 4 7 10 14 9 3 3 9 13 16 17 17 16 17 17 15 14 11 8 7 6 7 10 10 12 18 21 24 28 29 29 30 29 30 30 31 32 32 32 30 29 30 30 28 27 25 25 24 24 24 25 24 22 24 23 21 21 21 22 21 18 19 19 16 16
6 5 5 4 4 1 4 4 5 5 5 3 4 3 3 1 0 2 1 1 3 6 6 10 14 8 6 5 11 18 17 14 15 18 20 20 18 15 13 10 8 5 7 9 9 11 13 14 19 25 27 29 29 29 31 31 31 32 32 32 31 29 30 31 29 28 26 25 26 25 25 24 24 23 23 24 23 20 20 22 22 19 20 20 17 17
5 6 6 4 5 2 4 1 3 3 4 4 3 2 2 2 1 2 3 2 3 6 3 10 13 4 4 3 7 17 19 14 12 14 16 18 17 16 14 12 8 5 6 7 8 10 12 14 19 23 27 29 29 29 32 32 32 32 32 32 31 29 30 30 29 28 27 26 27 27 26 24 24 23 22 24 24 22 20 21 22 20 20 20 18 18
2 4 5 3 5 5 1 3 5 2 2 1 3 3 3 4 3 2 3 2 3 5 1 9 8 3 2 3 5 10 14 11 9 9 12 14 14 13 12 11 9 7 6 6 8 10 13 18 23 24 26 28 29 29 31 32 33 32 32 33 33 30 30 30 29 29 28 28 28 27 26 24 23 22 22 23 24 24 22 22 22 20 20 20 19 19
1 4 5 4 6 6 4 2 4 4 3 3 2 3 2 4 4 2 2 3 2 2 1 5 3 3 3 3 6 2 7 9 8 8 10 12 12 11 11 11 11 9 6 5 7 8 13 20 24 24 25 27 28 30 31 32 33 33 33 34 34 32 32 30 29 29 29 29 29 27 25 25 24 23 22 23 23 24 23 23 23 22 21 20 19 18
2 4 5 7 9 6 5 6 2 5 1 2 1 2 5 4 6 3 2 2 2 2 2 0 1 4 2 4 6 5 7 7 7 8 10 12 14 13 12 12 12 10 7 6 6 7 11 18 23 25 26 26 27 30 32 33 35 35 34 34 33 32 32 32 30 29 29 29 29 28 25 24 25 24 23 24 24 23 24 24 23 22 21 21 19 18
1 3 4 6 10 10 8 4 1 4 2 1 2 3 4 1 3 3 1 2 3 1 2 2 2 3 2 2 4 3 4 5 7 9 10 11 13 14 13 13 14 12 9 7 6 6 9 16 22 25 27 28 29 32 34 36 36 36 36 36 34 32 32 33 32 31 30 29 29 30 26 24 25 24 23 24 24 23 23 23 23 21 20 20 19 17
2 2 5 5 8 10 8 5 4 7 6 1 3 2 2 1 1 1 1 1 1 1 2 3 3 2 2 1 4 4 2 5 6 7 9 11 13 13 12 13 14 13 10 7 6 5 6 12 20 25 27 28 29 32 35 37 36 35 35 36 36 35 34 34 32 31 31 30 30 30 27 25 25 24 23 23 23 23 23 22 22 21 20 19 18 18
3 2 4 6 8 7 5 6 4 7 9 5 4 4 2 3 3 2 2 3 3 2 1 2 3 2 2 2 3 5 6 4 7 7 8 10 11 11 10 11 12 12 10 7 7 6 4 8 17 24 28 31 31 32 35 36 35 35 35 34 34 34 33 33 32 31 31 30 30 29 28 26 25 24 24 24 23 23 23 23 22 21 20 20 19 19
3 3 3 6 7 4 2 3 4 4 6 5 5 5 4 3 1 1 2 2 4 3 2 2 1 4 4 2 2 5 7 3 5 7 7 9 11 11 10 10 10 11 10 8 6 5 3 5 11 16 20 26 30 33 35 35 35 35 34 34 34 33 33 32 32 31 31 31 30 29 28 28 27 25 23 24 24 23 24 24 24 23 21 21 21 20
2 2 2 4 4 3 3 4 2 3 4 2 1 2 4 4 2 2 4 3 2 4 4 4 2 4 3 1 3 5 5 6 3 3 4 3 6 7 6 5 3 3 7 8 7 5 4 7 12 13 14 16 21 28 34 36 35 35 35 35 34 33 34 34 33 32 32 31 30 30 29 29 29 27 25 24 23 23 24 24 24 23 22 21 22 22
1 1 2 3 4 3 7 7 3 5 6 0 2 2 4 2 1 2 4 4 1 1 2 3 1 4 2 3 4 5 5 6 7 6 5 5 5 5 6 7 6 2 6 8 8 8 7 9 13 16 16 16 17 20 28 34 35 35 36 36 35 35 35 35 34 33 32 31 30 30 29 30 29 28 27 26 25 25 25 25 24 23 23 22 21 21
1 2 3 4 4 4 7 7 4 7 7 3 1 5 6 5 4 4 5 3 1 1 1 3 1 4 2 4 5 5 7 8 9 8 7 6 5 4 5 6 8 8 6 5 6 7 8 10 12 14 17 19 20 21 24 30 34 36 36 36 36 36 36 36 34 33 32 31 30 29 29 30 30 30 29 28 27 26 26 26 25 25 24 23 21 21
2 1 2 3 4 6 8 8 6 7 6 2 3 7 9 9 7 3 0 2 3 2 0 3 1 4 2 5 9 9 10 11 10 9 7 7 7 6 5 3 1 3 2 4 6 7 8 8 9 13 17 20 24 27 26 26 31 34 36 36 38 37 36 35 34 33 33 31 29 28 29 29 29 29 30 29 26 25 26 27 26 25 25 23 22 22
0 1 2 3 1 1 1 3 4 4 5 3 4 9 12 14 11 4 2 4 3 3 3 4 1 4 4 8 10 9 9 10 9 8 7 8 8 7 5 5 5 5 6 6 3 2 4 5 5 8 12 15 19 23 23 25 30 35 35 35 36 36 35 35 33 32 32 32 31 29 28 30 30 29 30 29 27 24 25 27 26 25 25 25 24 23
2 1 1 4 4 4 5 5 5 3 3 5 9 11 13 14 12 6 3 3 1 2 4 3 1 2 7 9 8 7 7 8 8 8 7 8 8 8 6 5 5 6 7 8 8 7 5 3 2 4 6 7 6 5 6 12 18 26 32 35 36 36 35 34 33 33 32 32 32 30 28 27 28 29 29 29 27 25 24 25 25 25 25 27 27 25
3 3 2 2 4 5 6 6 6 4 3 4 9 11 11 11 12 10 6 3 1 4 3 4 3 5 5 8 8 8 7 7 8 8 7 6 6 7 6 7 6 6 6 6 6 7 9 9 6 3 2 2 4 7 8 8 7 4 9 13 17 22 25 28 30 30 32 33 30 28 27 24 23 25 26 27 28 26 25 26 26 26 26 27 29 29
4 1 4 3 3 4 4 3 4 3 3 1 6 10 11 12 12 11 9 6 3 6 2 2 6 7 4 8 10 9 7 7 8 8 7 7 7 7 6 7 9 9 8 7 5 5 7 8 8 6 6 5 8 14 17 16 15 16 16 15 13 10 8 14 20 20 23 28 27 26 27 24 20 20 21 24 28 28 26 27 26 27 27 28 30 31
4 1 4 3 4 6 7 6 1 2 1 3 9 10 12 13 11 10 10 10 11 9 4 5 9 7 4 6 8 7 7 7 7 8 8 8 8 8 8 8 9 9 7 6 4 3 6 8 7 5 5 5 7 12 16 19 19 18 18 16 15 12 9 8 11 13 15 19 23 25 26 23 19 15 13 17 24 27 25 23 22 23 25 28 30 31
3 2 4 3 4 6 6 8 6 5 7 7 10 10 11 12 12 10 8 8 9 8 5 8 8 5 3 4 5 6 7 8 9 10 9 8 8 10 10 10 9 7 5 6 5 4 5 6 7 7 7 7 7 9 11 15 19 21 20 19 17 16 13 10 8 9 11 14 18 23 23 22 19 14 9 11 16 20 20 19 18 17 17 22 29 31
2 1 3 5 4 5 4 8 8 6 13 10 10 10 10 11 10 8 7 6 5 5 5 7 5 3 3 4 5 8 10 11 11 11 8 8 9 10 10 10 10 9 7 7 7 6 6 6 7 8 9 11 14 16 15 14 15 18 18 18 17 17 17 14 8 5 6 7 13 20 22 21 20 16 11 10 11 13 15 15 15 14 13 18 24 27
2 2 2 3 2 5 5 7 5 5 10 7 4 6 5 8 11 10 8 8 6 3 4 3 0 3 3 4 6 9 11 11 10 9 7 6 7 8 8 9 9 9 8 8 7 7 6 6 8 11 12 13 14 16 18 18 17 15 14 14 14 15 17 16 10 8 7 6 9 15 20 20 19 16 13 10 9 9 10 11 12 13 14 16 20 22
2 4 0 0 1 4 6 6 5 5 4 1 3 8 4 9 15 12 8 8 7 5 5 4 2 1 1 4 7 8 8 7 7 7 7 6 5 6 8 8 7 7 7 7 7 7 6 7 10 13 16 16 15 15 17 18 18 15 13 11 10 11 13 13 9 9 9 8 9 10 13 16 16 15 13 11 9 9 9 8 8 10 12 14 15 14
3 4 1 1 1 2 4 5 6 3 1 3 2 8 5 8 16 15 11 10 8 7 8 6 5 4 4 5 5 5 5 5 5 7 8 8 7 6 8 8 7 7 7 7 7 7 8 10 12 14 17 18 17 17 17 16 15 15 13 11 11 11 11 11 9 9 9 10 10 8 7 8 9 10 10 10 10 11 11 10 10 10 10 10 11 10
5 3 1 1 0 1 3 4 2 2 3 4 4 4 4 2 7 11 11 10 7 5 6 5 4 5 6 5 3 3 3 4 5 7 8 8 7 6 6 6 6 6 7 7 8 8 10 13 14 17 20 20 20 20 19 17 18 19 18 17 14 12 11 11 10 8 7 7 7 6 5 6 5 5 6 7 7 9 10 11 13 13 11 9 10 14
6 4 2 1 0 1 2 2 2 2 3 5 3 1 3 7 3 4 6 4 5 3 3 4 4 4 4 3 2 2 2 4 5 6 7 7 6 5 5 6 8 9 10 11 12 14 17 18 18 19 21 22 23 23 21 19 20 22 24 23 20 16 13 12 10 8 5 4 3 2 2 4 5 5 7 9 9 10 11 13 15 13 11 12 14 15
5 4 4 2 0 2 4 3 2 2 1 4 5 3 3 7 6 3 6 2 4 4 1 3 5 4 4 4 4 3 1 4 3 2 5 5 4 4 6 9 12 13 13 13 15 18 21 22 22 21 22 22 22 21 21 21 21 21 23 23 22 20 17 14 12 9 6 3 2 0 2 1 2 4 7 8 9 9 8 10 13 11 9 14 17 15
5 3 5 4 1 2 4 3 2 2 3 5 6 5 5 7 6 3 5 2 4 3 2 1 3 3 3 4 4 3 2 2 1 4 3 3 2 4 5 8 12 15 15 15 16 17 19 21 23 24 24 25 23 21 20 21 22 22 21 21 21 21 19 17 15 13 11 9 6 5 5 4 3 2 4 5 5 4 4 6 8 9 7 10 13 15
5 4 4 4 2 1 3 2 1 1 3 4 5 6 6 6 2 5 3 3 5 4 2 1 2 2 2 2 2 2 2 2 4 4 3 2 1 4 7 9 10 13 15 16 17 18 19 22 23 23 23 24 24 23 22 23 23 22 20 20 21 20 18 17 16 15 15 14 12 11 10 8 6 3 1 1 3 4 5 7 7 6 7 10 13 15
3 3 3 3 2 1 3 3 1 2 3 4 5 7 6 2 5 4 3 5 4 3 2 2 1 1 2 3 2 1 3 3 4 3 1 3 3 5 10 12 13 13 14 14 15 17 20 21 21 21 20 21 22 23 23 23 23 20 18 18 19 18 15 15 16 16 16 15 14 12 11 10 9 8 6 3 1 2 3 6 6 6 7 10 11 13
2 2 2 2 2 1 3 3 1 2 4 5 5 5 3 4 3 3 5 4 4 3 2 3 3 1 3 4 3 2 1 3 5 4 3 4 4 5 9 12 13 13 13 13 14 16 18 19 19 19 18 18 19 20 21 23 22 19 16 16 15 14 13 13 14 15 16 16 15 13 11 11 11 11 10 8 5 3 2 1 3 5 7 9 11 12
2 2 1 0 1 2 3 3 2 2 5 4 2 3 4 3 5 4 3 3 3 3 3 4 3 3 5 6 5 5 5 6 6 4 5 5 5 6 8 10 11 12 12 12 13 14 17 18 18 18 16 15 16 16 18 21 21 18 17 15 13 11 11 12 12 13 15 16 16 14 12 11 10 11 11 11 10 9 9 7 4 4 5 8 11 12
2 3 1 2 1 2 2 1 2 4 4 1 3 2 1 1 4 4 4 3 2 2 3 3 2 3 6 7 6 6 6 6 5 4 5 4 4 5 7 8 11 13 13 13 12 12 15 17 17 17 16 14 14 14 15 17 17 16 15 13 11 11 11 11 11 11 13 15 15 14 13 12 11 11 11 11 11 12 14 14 12 9 6 7 11 12
3 5 4 3 2 3 4 4 4 4 0 4 5 4 3 4 4 5 5 4 2 2 3 3 4 4 5 7 7 6 6 6 5 5 5 4 3 4 5 6 9 11 12 12 12 11 12 14 14 15 15 13 12 12 12 12 14 13 12 11 10 10 10 10 11 11 11 12 12 13 13 13 13 13 12 11 11 13 14 15 15 15 12 8 8 10
3 4 4 3 1 2 3 2 3 4 4 5 4 4 5 6 4 5 6 4 3 3 3 4 5 5 6 6 6 5 5 6 6 5 5 5 4 5 6 7 7 9 10 11 11 10 10 11 12 12 12 11 10 9 9 9 10 10 9 8 9 9 9 8 9 10 10 9 10 10 10 11 12 12 12 12 13 14 15 14 14 16 16 13 10 7
2 1 4 4 3 3 3 2 4 6 6 5 5 5 5 6 4 4 5 4 3 4 4 4 5 5 6 7 6 6 6 7 7 6 6 5 5 6 7 7 6 6 6 7 7 7 8 9 10 9 9 8 8 7 7 7 7 7 6 6 7 7 7 7 7 8 10 10 11 11 10 10 10 8 8 10 11 13 15 14 13 14 17 17 16 12
1 2 4 3 3 3 3 4 5 5 4 4 6 5 4 5 5 4 4 4 4 4 4 5 6 5 4 6 6 7 6 6 7 7 6 5 7 8 9 9 8 6 5 4 4 5 6 8 9 8 7 6 4 4 4 4 4 3 4 5 5 5 6 7 7 8 10 10 11 11 11 11 11 10 10 10 10 10 13 14 12 13 15 17 17 17
2 3 3 3 4 4 3 3 5 6 4 2 4 4 5 5 5 5 5 5 5 5 5 5 6 5 6 6 6 6 6 6 7 8 7 5 7 9 11 11 10 9 8 6 4 4 4 6 7 7 6 5 3 2 2 3 2 2 2 3 3 3 4 5 6 8 10 11 11 11 11 12 13 14 14 14 13 13 14 15 14 13 14 15 15 15
3 3 2 5 6 3 3 5 6 6 2 3 4 5 5 6 7 6 5 5 5 5 5 5 5 5 7 8 8 8 6 5 7 9 8 7 9 12 13 13 11 10 9 8 8 7 5 4 4 4 4 4 3 2 0 1 1 2 3 3 4 4 3 3 3 6 9 11 11 11 12 12 12 12 13 13 14 14 15 15 15 14 15 15 15 14
4 5 5 6 5 6 7 8 7 6 4 6 6 6 6 6 7 7 6 6 5 5 5 5 5 4 4 6 9 10 7 6 9 10 8 8 12 14 15 14 13 11 10 9 11 11 9 7 6 5 4 4 5 4 4 4 3 2 2 2 3 4 2 3 3 4 6 8 9 9 10 10 11 12 12 11 10 11 13 15 14 14 15 15 15 14
Wind_Direction
151 144 276 218 228 236 239 227 198 222 249 239 204 193 182 174 195 195 166 167 165 155 178 175 154 141 157 194 262 324 144 145 132 157 178 166 169 172 157 169 174 167 171 174 180 174 157 162 165 163 163 161 163 166 168 170 172 173 170 168 169 171 174 177 180 182 180 180 180 177 178 181 182 181 179 178 180 183 185 183 181 180 178 179 175 162
117 176 234 226 223 231 243 244 226 236 252 257 216 184 178 160 171 162 130 162 169 125 154 163 106 75 32 282 299 336 73 143 116 127 174 173 174 173 160 170 178 169 168 175 180 168 156 162 164 163 163 162 162 165 168 169 170 173 173 172 172 172 177 180 180 180 180 180 180 179 181 183 185 185 183 182 183 183 183 183 181 180 180 180 174 161
130 225 237 229 221 227 248 252 242 252 261 265 220 161 158 129 101 64 117 166 172 120 150 149 103 119 232 253 284 309 73 174 220 135 151 182 181 178 166 169 176 168 166 177 179 160 155 160 162 161 163 164 163 165 168 169 170 171 173 175 175 175 178 179 178 178 180 182 183 183 184 188 189 188 187 185 184 183 180 181 182 183 183 181 176 169
199 239 237 230 222 213 239 253 241 248 266 261 197 155 167 162 148 114 185 169 161 106 144 132 98 136 238 271 280 272 237 230 232 154 158 210 189 189 183 173 172 171 170 177 177 156 155 159 160 161 164 164 163 164 167 169 170 172 175 176 177 178 178 178 179 180 180 181 185 183 178 182 185 186 187 185 184 185 182 182 184 186 187 185 180 175
226 246 234 231 233 211 224 249 239 221 254 259 199 166 174 177 178 162 156 150 112 49 126 124 95 144 221 243 252 258 274 253 218 173 244 241 205 219 216 185 176 174 172 176 173 157 158 160 161 164 164 164 164 166 168 170 172 175 178 180 181 182 182 181 181 181 181 181 186 184 168 168 174 177 179 179 180 183 184 186 186 187 191 191 184 179
243 249 229 233 242 220 220 242 238 205 236 272 210 186 184 181 173 132 135 134 110 262 179 151 135 219 202 219 233 238 270 248 209 188 238 247 216 220 232 198 187 178 173 175 170 160 161 162 163 165 164 164 167 169 171 172 174 177 180 182 185 186 186 185 182 181 185 189 189 187 177 169 167 168 174 178 179 182 183 187 189 188 193 196 192 186
248 244 201 214 233 225 226 238 239 202 206 274 233 191 177 160 143 141 145 141 146 210 200 179 163 172 198 218 222 210 227 236 224 216 232 241 221 212 222 205 195 186 175 172 169 162 162 162 163 166 165 166 168 171 171 172 174 178 180 183 186 188 187 185 183 186 193 195 191 190 188 183 176 171 177 184 185 185 185 187 190 190 197 201 196 190
251 245 194 200 219 221 232 241 236 197 189 255 204 157 148 143 151 159 155 144 150 115 156 193 178 84 209 219 205 194 203 223 226 228 230 236 225 210 219 212 192 191 181 169 168 166 163 164 165 167 168 169 170 170 171 172 175 179 181 183 186 187 186 184 187 193 199 195 190 191 191 190 190 184 182 186 188 188 186 189 190 192 201 201 191 188
262 252 215 191 193 205 223 235 233 204 197 221 161 144 150 160 165 162 149 133 130 96 122 211 201 127 244 211 167 181 199 215 219 220 220 225 223 208 210 217 197 190 186 172 168 169 166 165 167 169 169 170 170 170 172 174 177 180 182 183 185 186 185 188 194 198 200 196 191 191 191 192 197 195 190 188 190 190 189 192 193 195 201 195 186 191
262 242 210 173 180 213 223 231 228 209 217 205 153 147 153 159 158 149 148 149 124 108 201 212 201 185 241 186 164 177 204 215 216 217 215 216 219 210 203 214 205 190 190 178 169 170 169 167 168 170 170 171 172 173 175 175 177 180 182 182 185 186 187 193 198 196 196 196 195 193 192 194 196 196 193 189 191 194 194 195 196 197 197 190 189 199
267 257 228 187 193 204 215 221 213 214 227 198 141 143 146 136 146 145 146 116 94 283 236 201 194 195 206 195 186 189 205 206 202 207 211 211 214 211 205 209 201 187 190 183 169 168 171 169 168 170 170 172 174 175 176 176 177 180 182 184 186 188 192 196 195 192 192 193 196 195 194 196 195 194 192 187 189 195 198 199 199 198 193 190 196 206
318 313 262 238 211 178 87 322 290 325 260 173 118 123 127 115 124 100 32 49 99 256 245 194 186 196 225 215 203 213 217 204 193 196 201 201 205 207 205 207 203 187 186 186 170 165 170 168 167 169 172 172 173 175 177 177 178 180 183 185 187 190 194 196 194 193 193 192 194 195 194 196 194 192 192 191 190 192 197 201 198 193 190 193 203 209
326 306 273 273 282 137 76 351 323 353 11 52 71 71 83 83 138 133 182 201 198 250 248 175 167 190 246 233 204 213 221 211 199 199 196 194 195 199 202 202 204 190 181 188 176 163 168 170 169 169 171 173 173 175 177 178 178 180 184 186 187 190 191 193 194 196 196 195 196 195 193 193 194 196 198 198 196 193 193 196 194 192 191 197 205 206
325 316 318 338 324 321 123 184 286 338 5 44 90 107 123 140 128 186 216 207 219 271 276 150 155 196 272 258 209 208 212 209 204 202 195 192 189 190 196 197 202 199 184 189 183 169 169 173 173 171 171 174 176 176 176 177 179 180 183 186 187 189 190 191 194 197 198 198 197 196 195 195 197 200 203 203 203 200 195 193 195 196 197 200 204 202
350 316 318 358 319 302 249 176 168 158 347 14 170 170 169 165 151 197 211 175 222 284 356 138 156 206 215 265 262 210 202 195 191 199 192 189 187 183 187 192 202 209 196 190 188 177 172 174 176 174 173 175 176 176 175 176 179 180 183 186 188 190 191 193 195 198 200 199 198 198 199 200 202 205 207 206 206 205 202 198 199 200 202 205 206 205
44 260 272 323 307 289 273 227 131 94 357 296 192 140 197 198 165 176 204 187 209 302 326 154 185 238 196 301 332 136 164 165 168 180 178 181 182 176 180 189 202 211 200 190 192 185 176 175 178 178 175 176 176 175 176 177 178 180 183 185 188 190 192 195 197 199 201 200 199 200 201 204 207 208 210 208 207 208 207 204 203 204 207 210 210 210
359 281 302 341 334 321 276 247 147 109 162 291 26 179 237 207 142 146 266 307 56 41 293 205 349 315 327 352 359 73 125 146 155 165 174 180 178 178 186 189 197 208 201 190 192 191 179 174 178 180 178 178 176 174 176 178 180 182 183 185 187 189 191 193 197 199 200 200 200 201 202 206 207 208 210 209 207 207 207 207 209 210 212 215 216 215
337 291 312 357 349 336 319 283 129 81 84 322 284 246 255 313 94 117 165 355 39 78 282 358 3 317 1 359 338 42 114 150 159 167 173 176 178 185 192 189 193 201 199 193 193 197 187 177 178 182 181 180 177 176 178 179 182 183 184 185 186 187 189 192 195 197 199 200 200 201 203 206 205 205 208 207 205 205 205 207 211 213 215 216 216 215
40 325 297 360 357 331 341 14 21 356 360 341 248 274 74 83 320 2 146 165 54 213 278 353 333 272 154 249 318 337 270 186 160 162 171 179 186 190 193 191 194 198 197 194 193 199 194 182 180 180 182 182 178 177 179 179 181 183 184 186 188 189 190 192 194 196 198 200 200 201 203 203 201 202 204 205 205 206 206 207 210 214 217 218 216 214
42 58 281 330 347 328 348 30 25 341 343 356 344 349 40 172 187 203 195 165 153 196 219 6 334 276 216 257 310 316 293 213 160 162 174 183 190 192 193 192 194 199 200 196 195 197 199 195 189 184 182 182 178 176 177 178 180 182 184 186 188 190 191 191 194 196 198 200 201 200 202 203 201 201 203 204 205 208 209 211 213 216 218 219 216 214
26 55 297 312 336 351 356 9 27 349 328 339 355 355 338 314 252 238 260 168 146 154 157 141 276 272 248 246 313 314 312 296 176 174 178 185 188 192 195 191 195 205 203 197 193 186 171 175 186 188 187 183 178 175 175 177 179 182 183 186 187 189 190 191 193 196 197 199 200 201 202 204 203 202 202 203 206 211 213 214 216 218 220 219 218 217
353 20 353 320 330 357 302 293 340 340 308 270 151 353 306 291 304 301 292 282 163 143 152 156 191 263 255 90 5 324 325 347 20 132 142 158 170 175 176 161 161 221 218 206 181 156 160 165 168 180 184 181 180 178 176 177 179 181 182 185 187 188 190 192 193 195 197 197 199 202 202 203 203 203 204 205 209 212 213 215 218 219 220 219 217 217
253 82 28 314 279 271 281 287 336 1 344 350 138 347 307 300 12 261 251 256 250 124 116 112 130 266 265 78 36 338 334 4 25 53 70 69 90 114 127 124 116 164 223 209 176 160 173 174 170 173 168 165 177 183 179 178 178 181 183 184 186 188 191 193 194 195 196 196 198 202 203 203 204 204 205 207 210 212 211 214 218 218 217 217 216 217
334 47 15 312 290 305 314 324 16 28 14 21 6 347 338 318 295 242 206 186 133 359 47 90 77 273 290 56 46 6 358 22 28 25 40 57 61 78 117 142 159 182 193 172 160 157 158 159 163 167 162 162 172 179 182 182 181 182 183 183 185 189 191 193 194 194 195 196 197 200 202 204 206 206 206 209 212 215 214 215 217 216 216 217 219 220
325 358 45 11 342 347 347 349 2 8 5 355 311 339 348 337 320 299 108 76 61 4 34 120 155 256 293 37 43 27 15 23 23 10 22 43 40 33 29 28 105 183 144 132 153 153 149 152 156 165 169 172 174 174 180 188 186 183 184 185 185 188 190 191 192 193 195 196 197 199 202 204 207 209 209 211 215 218 217 214 214 214 215 216 220 223
79 186 103 91 53 359 331 303 306 323 324 310 335 359 11 11 4 6 40 55 54 5 31 81 174 272 342 26 39 38 28 23 14 4 17 33 37 39 39 28 27 34 30 24 34 98 131 135 137 163 175 176 174 174 183 196 194 186 183 185 186 187 188 189 191 192 193 195 197 199 202 204 206 209 211 213 216 219 217 214 214 217 217 215 219 224
84 358 114 140 163 191 200 220 238 257 290 322 357 20 33 26 18 26 55 55 73 69 49 30 295 357 4 7 23 34 37 32 13 5 15 25 27 31 35 31 43 66 54 28 15 5 7 42 122 171 172 168 161 159 187 207 204 191 185 185 187 188 188 188 190 192 193 195 198 199 201 202 204 208 211 214 216 218 219 218 220 223 221 219 219 222
77 345 300 199 205 217 207 212 231 257 287 332 6 28 47 41 34 42 37 329 286 98 62 328 6 59 4 352 21 25 22 35 24 9 12 26 33 34 25 11 21 60 74 63 46 23 13 9 355 2 60 103 93 82 77 60 45 94 146 158 169 178 184 187 189 192 194 194 195 196 197 197 199 204 209 214 216 217 219 222 224 226 226 223 220 219
98 280 273 292 311 295 289 265 222 229 262 14 38 40 50 48 44 47 33 2 46 97 119 339 43 57 360 354 24 23 12 28 27 12 13 26 37 47 39 20 22 34 44 55 57 48 47 31 3 14 49 77 107 114 114 102 82 75 78 78 81 92 133 171 179 188 193 191 189 191 194 195 197 200 207 215 217 216 218 222 226 228 228 226 222 220
102 276 292 343 354 329 320 315 314 137 157 70 58 54 59 54 44 47 46 53 73 83 84 56 45 36 4 5 22 20 14 26 29 22 24 26 31 48 52 39 35 30 24 37 51 54 58 42 17 29 75 104 125 132 131 127 124 122 122 124 119 105 93 119 151 169 184 186 184 184 188 191 192 193 200 211 216 217 218 221 224 226 227 227 225 222
94 290 301 39 18 319 307 321 338 100 112 73 51 54 67 64 47 40 40 51 73 79 62 49 38 10 346 8 24 33 33 39 39 31 30 31 37 56 63 58 56 49 33 38 50 73 79 61 46 49 52 58 79 96 103 111 122 127 132 140 141 136 132 124 123 144 164 176 178 178 181 184 185 186 185 188 199 208 211 214 217 219 221 222 222 221
80 308 317 55 26 298 296 337 342 92 97 65 38 33 52 70 63 48 33 22 56 95 83 57 37 334 326 356 22 39 40 40 37 31 36 46 51 61 65 63 60 55 51 51 55 76 89 84 82 80 65 61 76 90 93 95 105 111 120 135 139 137 141 141 133 138 158 176 180 177 178 181 181 182 182 174 176 185 192 199 204 207 209 212 214 215
103 95 340 48 23 285 302 338 336 90 85 58 14 345 14 86 78 57 44 24 19 71 93 76 14 281 322 11 31 40 40 38 35 32 34 42 55 67 66 64 63 54 50 56 61 68 74 76 82 85 80 74 79 92 101 104 102 98 106 126 137 143 149 150 158 180 195 221 213 189 183 187 191 192 192 190 187 184 183 187 192 193 196 201 206 211
84 96 63 62 125 280 303 338 14 62 73 211 303 326 341 99 87 68 52 28 21 51 81 93 136 192 32 48 53 55 53 45 37 32 28 26 45 70 66 56 53 50 50 54 58 56 55 65 78 83 84 83 80 82 91 98 101 101 103 111 121 139 150 151 165 190 200 224 239 215 194 197 204 207 212 220 225 219 210 206 199 193 192 195 199 202
80 69 35 351 84 275 317 16 44 61 215 230 331 346 342 95 93 81 60 38 42 75 90 98 118 119 102 86 78 80 84 75 53 36 28 25 29 55 67 58 39 34 39 40 41 46 51 60 71 78 81 84 84 85 89 95 103 105 104 108 120 134 143 147 166 191 202 219 238 241 223 220 221 219 226 238 243 240 238 238 237 229 216 204 199 197
115 99 95 49 5 318 13 42 82 192 271 314 25 23 303 297 90 81 57 31 28 73 102 118 134 128 122 118 107 108 110 91 62 38 24 27 36 47 61 67 59 50 48 44 38 42 53 65 73 79 82 83 83 81 80 85 97 101 96 97 110 123 130 133 141 155 175 201 228 245 240 236 236 225 226 239 252 259 261 260 253 241 224 212 208 206
119 114 88 37 13 128 83 68 80 72 344 328 348 90 278 295 313 97 89 28 356 18 109 139 149 154 151 142 149 171 114 71 52 25 6 12 36 48 45 60 75 76 69 63 60 58 61 68 75 81 85 85 83 81 78 77 83 89 89 89 93 99 107 111 111 120 137 163 204 237 219 207 207 206 211 219 232 247 257 262 262 251 232 234 232 211
108 129 136 123 309 94 95 90 73 83 195 255 258 241 268 293 293 118 107 41 330 340 25 155 162 175 177 174 200 221 48 48 40 342 336 344 12 50 54 60 71 78 75 70 69 69 69 71 75 79 82 82 79 79 79 77 76 76 78 82 87 90 93 93 94 104 115 125 154 103 22 345 258 249 246 242 243 249 253 259 267 267 252 251 253 240
61 73 109 103 15 45 93 109 145 187 212 230 245 250 253 258 249 117 76 356 288 304 325 186 183 198 195 193 203 195 90 55 239 256 289 318 12 50 59 61 67 73 75 73 72 72 73 75 77 78 79 80 81 83 82 79 76 71 66 66 72 75 75 76 80 87 91 92 94 89 73 56 37 341 294 285 282 281 279 269 266 266 262 260 262 258
35 30 66 71 7 25 106 108 140 195 241 255 264 271 267 257 204 99 70 278 258 278 301 196 210 246 213 198 181 146 158 206 206 220 270 296 11 50 61 68 73 76 77 78 79 80 81 81 80 78 77 78 83 88 89 84 78 72 66 64 64 61 60 67 76 81 86 89 92 93 93 90 84 76 50 304 269 263 271 270 263 255 250 249 248 249
24 22 65 88 56 58 100 107 177 248 257 264 277 282 282 333 65 104 198 230 224 240 253 148 159 237 171 139 122 171 232 222 159 142 353 347 6 44 65 79 85 83 81 83 86 86 86 84 83 83 82 85 90 93 95 93 86 78 73 72 68 61 57 65 77 84 86 88 90 91 91 88 83 79 80 87 193 245 254 254 245 229 227 235 238 240
21 7 23 75 74 64 101 108 86 290 269 251 265 295 345 69 97 192 211 199 176 187 173 126 136 138 105 106 112 132 147 101 99 89 40 32 32 38 62 79 81 75 75 79 82 85 87 86 85 84 85 91 96 98 100 101 96 89 84 80 75 74 72 72 77 82 81 79 80 85 87 83 72 67 71 79 82 74 59 262 222 208 214 222 220 218
149 128 344 294 131 86 71 68 70 261 263 253 257 330 17 109 180 193 160 141 153 148 123 121 146 131 107 109 111 109 102 89 82 72 53 48 44 44 58 71 72 67 68 70 69 78 88 88 85 83 86 93 99 101 105 106 103 99 95 87 84 91 92 83 81 81 76 72 73 79 87 89 77 67 67 71 75 75 67 60 77 130 170 190 190 182
149 141 166 222 173 108 106 148 185 215 256 320 109 119 18 129 162 141 120 126 127 112 113 118 132 127 120 123 123 115 112 108 105 99 84 67 58 61 63 68 73 75 76 75 73 77 83 84 82 82 86 92 94 96 101 104 103 100 93 87 91 103 106 100 99 98 88 80 77 79 85 87 84 81 80 76 74 74 70 66 66 72 97 148 162 158
194 173 161 168 172 153 165 188 197 198 227 46 89 123 99 87 112 120 122 131 137 138 138 131 135 137 130 132 134 129 130 136 133 128 122 115 110 99 86 79 83 87 87 87 88 83 78 77 80 83 84 85 89 92 93 96 98 92 79 75 84 95 103 106 107 108 105 96 91 89 87 83 78 75 77 75 67 62 61 61 61 60 66 97 134 146
206 160 128 109 108 98 89 103 136 130 99 73 74 96 99 96 100 106 105 111 138 151 143 139 147 151 145 143 142 140 147 151 144 143 146 143 141 136 127 116 106 105 106 104 101 96 86 81 81 81 77 75 78 84 85 87 88 80 67 70 82 87 95 104 101 99 97 97 99 102 98 90 82 73 67 64 59 54 51 50 55 59 61 67 79 107
290 119 103 98 106 98 89 137 143 125 121 115 95 80 87 94 97 107 110 116 128 128 129 135 136 137 147 154 154 154 160 159 153 155 160 153 155 158 150 141 133 124 118 111 103 99 100 98 90 82 75 70 69 75 80 80 77 68 60 67 78 80 83 87 87 86 86 90 99 104 101 96 94 90 80 67 57 54 52 49 51 57 58 59 63 74
260 105 109 102 94 101 139 174 147 112 113 127 113 107 110 107 107 116 123 126 119 104 112 131 128 127 145 157 156 153 158 164 163 165 168 162 165 175 172 166 167 167 151 127 111 109 112 113 109 101 92 81 64 55 60 61 60 56 49 53 60 66 71 72 71 75 84 93 99 97 94 93 93 91 85 74 64 63 63 60 56 56 56 56 57 64
127 96 120 122 98 82 95 140 120 86 53 63 112 131 141 128 119 118 117 115 108 91 89 111 130 145 153 153 149 142 146 164 170 168 170 169 170 180 185 185 185 180 169 166 173 157 127 124 129 126 118 115 107 72 27 18 18 9 3 16 20 25 52 68 64 67 78 90 97 100 100 99 95 88 81 77 74 73 72 71 70 69 67 65 61 63
98 100 114 116 121 142 186 182 153 126 131 197 173 155 149 132 115 111 116 119 119 116 107 101 111 135 145 150 151 144 143 166 172 168 171 177 181 188 193 193 189 179 171 174 180 174 155 142 145 147 146 153 161 164 171 358 2 350 350 356 357 1 29 77 75 66 70 73 81 96 107 109 105 98 89 84 82 81 81 80 80 80 81 82 80 75
145 165 165 145 160 198 202 191 168 139 156 198 188 162 153 131 108 107 123 133 137 139 132 119 116 125 137 156 162 160 161 172 172 169 171 185 193 195 196 198 195 188 181 181 179 172 166 161 159 161 173 188 200 213 223 223 224 266 310 342 11 17 43 103 101 90 81 67 63 79 98 105 106 104 98 93 93 96 96 92 87 86 88 91 92 90